User: anonymous
Location: Lac de la Montange Noire
(46.1952°N, 74.2701°W)
Time: 21:54:46
(UTC-04:00)
Language:

Iridium 42 - Orbit

View from above orbital plane
View from above orbital plane
View from above satellite
View from above satellite

Ground track
Ground track

The orbit data is extracted from the following two-line orbital elements,

1 25077U 97077A   14262.04393948  .00000214  00000-0  69304-4 0  9539
2 25077 086.3923 080.8870 0002068 107.1735 252.9688 14.34230016878530
Epoch (UTC): 19 September 2014 01:03:16
Eccentricity: 0.0002068
inclination: 86.3923°
perigee height: 776 km
apogee height: 779 km
right ascension of ascending node: 80.8870°
argument of perigee: 107.1735°
revolutions per day: 14.34230016
mean anomaly at epoch: 252.9688°
orbit number at epoch: 87853

The dashed part of the orbit path shows where the satellite is in the earth's shadow,  

DLR